Weather in Aki-Yurt

Russia / Republic of Ingushetia     43°30′27″N   44°51′42″E
temp.,
°C
wind,
m/s
gust,
m/s
humid.,
%
clouds,
%
prec.,
mm/h
press.,
hPa
HPBL,
m
15 august, mon
mon1500:00+24ssw11540 0.0 100611
03:00+22sw11580 0.0 100511
06:00+22ssw00635 0.0 100611
09:00+28n21460 0.0 1006558
12:00+34ne33300 0.0 10041357
15:00+37ene22210 0.0 10021869
18:00+36ne34210 0.0 1002188
21:00+26ese22380 0.0 100528
16 august, tue
tue1600:00+24sw01470 0.0 100511
03:00+23w33510 0.0 100638
06:00+23wsw34500 0.0 100797
09:00+30wnw55350 0.0 1007652
12:00+35nw54260 0.0 10071471
15:00+38nw33210 0.0 10062263
18:00+36nnw23240 0.0 1006218
21:00+29sw22380 0.0 100816
17 august, wed
wed1700:00+27wsw34440 0.0 100957
03:00+25wsw46510 0.0 1010100
06:00+25wsw34510 0.0 1010118
09:00+31nw44380 0.0 1009870
12:00+36nne33260 0.0 10081939
15:00+38ne43210 0.0 10062660
18:00+36ne44230 0.0 1006552
21:00+29s22350 0.0 100611
18 august, thu
thu1800:00+27ssw22440 0.0 100615
03:00+25wsw224113 0.0 100614
06:00+25sw37440 0.0 1008187
09:00+31wnw553621 0.0 1007687
12:00+36nnw32250 0.0 10052094
15:00+38nne44200 0.0 10032963
18:00+36n24220 0.0 1003314
21:00+27sse333656 0.0 100431
19 august, fri
fri1900:00+22wnw81378100 0.1 1008487
03:00+21w4981100 0.1 1008346
06:00+22wsw2574100 0.0 1009223
09:00+26nw3353100 0.0 1009670
12:00+32nne333327 0.0 10081776
15:00+35ne542776 0.0 10072461
18:00+32ene552849 0.0 1006845
21:00+25ene2235100 0.0 100838